This is the latest recevied weather packets stored in our database for station/object N7CEE-2. If no packets are shown the sender has not sent any weather packets the latest 10 day(s).
| Time | Temp. | Humidity | Pressure | Rain* | Wind** | Luminosity | Snow |
|---|---|---|---|---|---|---|---|
| 1777615695 | 24.44° C | 28% | 1010.5 hPa | 0 mm | - | 0 W/m² | - |
| 1777615392 | 24.44° C | 28% | 1010.4 hPa | 0 mm | - | 0 W/m² | - |
| 1777615091 | 24.44° C | 28% | 1010.4 hPa | 0 mm | - | 0 W/m² | - |
| 1777614787 | 24.44° C | 28% | 1010.2 hPa | 0 mm | - | 0 W/m² | - |
| 1777614483 | 25° C | 28% | 1010.3 hPa | 0 mm | - | 0 W/m² | - |
| 1777614178 | 25° C | 28% | 1010.2 hPa | 0 mm | - | 0 W/m² | - |
| 1777613873 | 25° C | 27% | 1009.9 hPa | 0 mm | - | 0 W/m² | - |
| 1777613571 | 25° C | 27% | 1009.9 hPa | 0 mm | - | 0 W/m² | - |
| 1777613267 | 25° C | 26% | 1010 hPa | 0 mm | - | 0 W/m² | - |
| 1777612964 | 25° C | 27% | 1009.9 hPa | 0 mm | - | 0 W/m² | - |
| 1777612659 | 25° C | 26% | 1009.7 hPa | 0 mm | - | 0 W/m² | - |
| 1777612356 | 25.56° C | 26% | 1009.5 hPa | 0 mm | - | 0 W/m² | - |
| 1777612050 | 25.56° C | 26% | 1009.3 hPa | 0 mm | - | 0 W/m² | - |
| 1777611746 | 25.56° C | 26% | 1009.2 hPa | 0 mm | - | 0 W/m² | - |
| 1777611443 | 25.56° C | 25% | 1009.3 hPa | 0 mm | - | 0 W/m² | - |
| 1777611140 | 25.56° C | 25% | 1009.3 hPa | 0 mm | - | 0 W/m² | - |
| 1777610835 | 26.11° C | 25% | 1009 hPa | 0 mm | - | 0 W/m² | - |
| 1777610531 | 26.11° C | 25% | 1009.2 hPa | 0 mm | - | 0 W/m² | - |
| 1777610225 | 26.11° C | 24% | 1008.8 hPa | 0 mm | - | 0 W/m² | - |
| 1777609923 | 26.11° C | 24% | 1008.6 hPa | 0 mm | - | 0 W/m² | - |
| 1777609619 | 26.67° C | 24% | 1008.7 hPa | 0 mm | - | 0 W/m² | - |
| 1777609316 | 26.67° C | 23% | 1008.7 hPa | 0 mm | - | 0 W/m² | - |
| 1777609014 | 26.67° C | 22% | 1008.6 hPa | 0 mm | - | 0 W/m² | - |
| 1777608710 | 27.22° C | 21% | 1008.5 hPa | 0 mm | - | 0 W/m² | - |
| 1777608407 | 28.33° C | 18% | 1008.4 hPa | 0 mm | - | 0 W/m² | - |
* Rain latest hour (hover to see other rain measurements)
** Current wind speed in m/s (hover to see current wind gust speed)